Powrót do katalogu

CZ-3B R/B

AktywnyHEO
NORAD 63076·ROCKET BODY·🇨🇳 China

Wystrzelony Feb 22, 2025 z Xichang Satellite Launch Center

Loading…

Następne Przeloty (najbliższe 24 godziny)

TLE

ŚwieżeSource: Space-Track

Epoka: Sep 13, 2026, 09:47 UTC

1 63076U 25036B   26256.40804834  .00013729  00000-0  10071-2 0  9993
2 63076  27.2576  95.6489 6870167 209.9490  81.1742  2.84430031 14038

Śledź CZ-3B R/B w czasie rzeczywistym z AllMySat

Download on the App Store